EW8714 Weather Reports


time (UTC)temp
C
wind
direction
speed
KPH
gust
KPH
rain 1hr
cm
rain 24hr
cm
rain mn
cm
humidity
%
barometer
mb
20260505114524 2 359 6.4 12.9 0.08 0.71 0.41 91 1014.2
20260505114023 3 8 4.8 14.5 0.08 0.71 0.41 91 1014.2
20260505113521 3 8 3.2 14.5 0.08 0.71 0.41 91 1014.2
20260505113025 3 360 4.8 12.9 0.05 0.69 0.38 92 1014.2
20260505112524 3 27 3.2 17.7 0.08 0.69 0.38 91 1014.0
20260505112023 3 1 8.0 17.7 0.05 0.66 0.36 91 1014.0
20260505111526 3 23 4.8 14.5 0.08 0.66 0.36 92 1014.0
20260505111025 3 23 4.8 16.1 0.10 0.66 0.36 92 1013.9
20260505110524 3 16 6.4 16.1 0.13 0.66 0.36 92 1013.6
20260505102007 4 359 6.4 17.7 0.13 0.61 0.30 92 1012.9
20260505101512 4 3 4.8 17.7 0.10 0.58 0.28 91 1012.8
20260505101016 4 49 4.8 12.9 0.08 0.56 0.25 91 1012.7
20260505100510 4 2 3.2 11.3 0.05 0.53 0.23 91 1012.6
20260505100010 5 4 6.4 11.3 0.05 0.51 0.20 91 1012.5
20260505095514 5 29 4.8 12.9 0.05 0.51 0.20 91 1012.4
20260505095008 5 19 6.4 12.9 0.05 0.48 0.18 91 1012.4
20260505094521 5 5 3.2 11.3 0.08 0.48 0.18 91 1012.5
20260505094013 5 4 3.2 11.3 0.10 0.48 0.18 91 1012.4
20260505093512 5 13 4.8 11.3 0.13 0.48 0.18 91 1012.3
20260505093012 5 58 3.2 14.5 0.15 0.48 0.18 91 1012.2
20260505092515 5 54 4.8 16.1 0.18 0.48 0.18 91 1012.2
20260505092012 5 45 3.2 16.1 0.18 0.48 0.18 91 1012.2
20260505091513 5 359 6.4 14.5 0.18 0.48 0.18 91 1012.1
20260505091012 5 62 6.4 12.9 0.18 0.48 0.18 91 1012.0
20260505090510 5 43 3.2 12.9 0.18 0.48 0.18 91 1012.0
20260505090019 6 55 4.8 11.3 0.15 0.46 0.15 90 1012.0
20260505085514 6 65 1.6 6.4 0.13 0.43 0.13 90 1012.1
20260505085011 6 66 1.6 6.4 0.13 0.43 0.13 90 1012.1
20260505084513 6 66 1.6 4.8 0.10 0.41 0.10 90 1012.1
20260505084012 6 66 1.6 14.5 0.08 0.38 0.08 90 1012.1
20260505083512 6 63 3.2 16.1 0.05 0.36 0.05 89 1012.0
20260505083018 7 49 6.4 16.1 0.03 0.33 0.03 88 1011.9
20260505082514 8 50 4.8 9.7 0.00 0.30 0.00 90 1011.9
20260505082012 8 66 3.2 8.0 0.00 0.30 0.00 90 1011.8
20260505081511 8 65 3.2 6.4 0.00 0.30 0.00 91 1011.8
20260505081016 8 65 1.6 8.0 0.00 0.30 0.00 91 1011.8
20260505080510 8 65 3.2 8.0 0.00 0.30 0.00 91 1011.7
20260505080008 8 60 3.2 9.7 0.00 0.30 0.00 91 1011.8
20260505075511 8 49 3.2 9.7 0.00 0.30 0.00 92 1011.9
20260505075012 8 288 1.6 6.4 0.00 0.30 0.00 92 1011.9
20260505074511 8 287 3.2 6.4 0.00 0.30 0.00 92 1012.0
20260505074011 8 250 0.0 4.8 0.00 0.30 0.00 92 1012.0
20260505073515 8 250 1.6 4.8 0.00 0.30 0.00 91 1012.0
20260505073011 8 248 1.6 4.8 0.00 0.30 0.00 91 1012.0
20260505072511 8 247 1.6 3.2 0.00 0.30 0.00 91 1012.0
20260505072010 8 247 0.0 1.6 0.00 0.30 0.00 91 1012.0
20260505071527 8 247 0.0 0.0 0.00 0.30 0.00 91 1012.1
20260505071011 8 247 0.0 0.0 0.00 0.30 0.00 91 1012.0
20260505070516 8 247 0.0 3.2 0.00 0.30 0.00 91 1011.8
20260505070018 8 247 0.0 3.2 0.00 0.30 0.00 91 1011.8
20260505065515 8 247 0.0 3.2 0.00 0.30 0.00 91 1011.7
20260505065015 8 247 0.0 1.6 0.00 0.30 0.00 91 1011.8
20260505064514 8 247 0.0 0.0 0.00 0.30 0.00 91 1011.7
20260505064013 8 247 0.0 0.0 0.00 0.30 0.00 91 1011.8
20260505063513 8 247 0.0 0.0 0.00 0.30 0.00 91 1011.9
20260505063018 8 247 0.0 4.8 0.00 0.30 0.00 91 1011.9
20260505062517 8 247 0.0 6.4 0.00 0.30 0.00 91 1011.9
20260505062017 8 248 1.6 6.4 0.00 0.30 0.00 91 1011.9
20260505061519 8 250 3.2 6.4 0.00 0.30 0.00 90 1012.0
20260505061020 8 253 1.6 3.2 0.00 0.30 0.00 90 1012.1
20260505060515 8 253 0.0 0.0 0.00 0.30 0.00 90 1012.0
20260505060035 8 253 0.0 0.0 0.00 0.30 0.00 90 1011.9
20260505055520 8 253 0.0 0.0 0.00 0.30 0.30 90 1012.0
20260505055016 8 253 0.0 0.0 0.00 0.30 0.30 90 1011.9
20260505054519 8 253 0.0 0.0 0.00 0.30 0.30 90 1011.8
20260505054018 8 253 0.0 0.0 0.00 0.30 0.30 90 1011.7
20260505053518 8 253 0.0 3.2 0.00 0.30 0.30 90 1011.8
20260505053017 8 253 0.0 3.2 0.00 0.30 0.30 90 1011.5
20260505052520 8 253 0.0 6.4 0.00 0.30 0.30 90 1011.5
20260505052017 8 253 0.0 6.4 0.00 0.30 0.30 90 1011.5
20260505051525 8 253 3.2 8.0 0.00 0.30 0.30 90 1011.5
20260505051019 8 253 3.2 8.0 0.03 0.30 0.30 90 1011.7
20260505050520 8 253 4.8 9.7 0.03 0.30 0.30 90 1011.7
20260505041523 8 264 3.2 6.4 0.28 0.30 0.30 90 1012.1
20260505041018 8 264 3.2 8.0 0.25 0.28 0.28 89 1012.0
20260505040518 8 264 4.8 8.0 0.28 0.28 0.28 89 1012.0
20260505040020 9 264 4.8 8.0 0.28 0.28 0.28 88 1012.1
20260505035520 9 264 1.6 8.0 0.25 0.25 0.25 88 1012.0
20260505035018 9 264 3.2 11.3 0.20 0.20 0.20 88 1012.1
20260505034521 9 264 6.4 11.3 0.18 0.18 0.18 87 1012.0
20260505034020 9 262 6.4 12.9 0.15 0.15 0.15 86 1012.1
20260505033520 9 264 8.0 14.5 0.13 0.13 0.13 85 1012.1
20260505033021 9 288 6.4 14.5 0.10 0.10 0.10 84 1012.0
20260505032521 9 286 6.4 14.5 0.08 0.08 0.08 82 1011.9
20260505032019 10 289 8.0 16.1 0.05 0.05 0.05 80 1011.8
20260505031523 10 287 9.7 16.1 0.03 0.03 0.03 78 1011.8
20260505031022 10 335 1.6 4.8 0.00 0.00 0.00 77 1011.8
20260505030522 11 335 0.0 3.2 0.00 0.00 0.00 76 1011.7
20260505030024 11 336 0.0 3.2 0.00 0.00 0.00 75 1011.5
20260505025522 11 336 0.0 4.8 0.00 0.00 0.00 75 1011.3
20260505025022 11 336 0.0 4.8 0.00 0.00 0.00 73 1011.0
20260505024521 11 336 0.0 4.8 0.00 0.00 0.00 72 1010.9
20260505024020 11 335 0.0 6.4 0.00 0.00 0.00 71 1010.9
20260505023620 11 335 1.6 6.4 0.00 0.00 0.00 70 1010.8
20260505023025 11 337 1.6 6.4 0.00 0.00 0.00 69 1010.6
20260505022523 11 335 1.6 6.4 0.00 0.00 0.00 69 1010.4
20260505022029 11 335 0.0 6.4 0.00 0.00 0.00 69 1010.3
20260505021528 11 335 1.6 8.0 0.00 0.00 0.00 69 1010.4
20260505021020 11 338 1.6 11.3 0.00 0.00 0.00 69 1010.5
20260505020520 11 336 3.2 11.3 0.00 0.00 0.00 70 1010.8
20260505020025 11 352 1.6 9.7 0.00 0.00 0.00 70 1010.8
20260505015525 11 349 3.2 9.7 0.00 0.00 0.00 69 1010.6
20260505015029 11 1 4.8 11.3 0.00 0.00 0.00 68 1010.6
20260505014525 12 1 3.2 17.7 0.00 0.00 0.00 67 1010.4
20260505014029 12 1 8.0 17.7 0.00 0.00 0.00 64 1010.3
20260505013522 13 356 6.4 12.9 0.00 0.00 0.00 59 1010.3
20260505013022 13 10 3.2 11.3 0.00 0.00 0.00 59 1010.3
20260505012522 13 3 3.2 12.9 0.00 0.00 0.00 57 1010.4
20260505012022 13 1 6.4 12.9 0.00 0.00 0.00 56 1010.2
20260505011526 14 4 3.2 12.9 0.00 0.00 0.00 54 1010.2
20260505011024 14 359 3.2 9.7 0.00 0.00 0.00 51 1010.2
20260505010524 14 359 3.2 9.7 0.00 0.00 0.00 49 1010.2
20260505010023 14 356 3.2 9.7 0.00 0.00 0.00 48 1010.1
20260505005524 15 355 3.2 9.7 0.00 0.00 0.00 46 1010.0
20260505005022 15 354 1.6 8.0 0.00 0.00 0.00 46 1010.0
20260505004506 15 359 1.6 9.7 0.00 0.00 0.00 46 1009.8
20260505004006 15 1 3.2 12.9 0.00 0.00 0.00 46 1009.6
20260505003511 15 360 4.8 12.9 0.00 0.00 0.00 46 1009.7
20260505003006 15 5 3.2 11.3 0.00 0.00 0.00 47 1009.5
20260505002510 15 6 4.8 11.3 0.00 0.00 0.00 47 1009.6
20260505002006 15 1 3.2 16.1 0.00 0.00 0.00 47 1009.6
20260505001506 15 360 6.4 16.1 0.00 0.00 0.00 46 1009.7
20260505001004 15 329 6.4 16.1 0.00 0.00 0.00 45 1009.7
20260505000505 16 348 4.8 14.5 0.00 0.00 0.00 43 1009.4
20260505000019 16 7 3.2 9.7 0.00 0.00 0.00 39 1009.3
20260504235508 16 7 3.2 8.0 0.00 0.00 0.00 39 1009.3
20260504235008 16 2 3.2 16.1 0.00 0.00 0.00 39 1009.4
20260504234506 16 360 4.8 16.1 0.00 0.00 0.00 39 1009.3
20260504234006 16 328 3.2 14.5 0.00 0.00 0.00 40 1009.4
20260504233505 16 359 4.8 14.5 0.00 0.00 0.00 40 1009.5
20260504233007 16 360 3.2 12.9 0.00 0.00 0.00 41 1009.4
20260504232508 16 349 4.8 22.5 0.00 0.00 0.00 43 1009.3
20260504232005 16 359 12.9 25.7 0.00 0.00 0.00 42 1009.3
20260504231511 16 359 16.1 25.7 0.00 0.00 0.00 39 1009.4
20260504231010 17 304 14.5 25.7 0.00 0.00 0.00 38 1009.2
20260504230509 17 352 3.2 8.0 0.00 0.00 0.00 34 1009.2
20260504230013 17 351 1.6 8.0 0.00 0.00 0.00 33 1009.2
20260504225510 17 1 1.6 6.4 0.00 0.00 0.00 34 1009.2
20260504225014 17 2 1.6 8.0 0.00 0.00 0.00 33 1009.1
20260504224518 17 2 3.2 12.9 0.00 0.00 0.00 33 1008.9
20260504224013 17 8 3.2 14.5 0.00 0.00 0.00 32 1008.8
20260504223513 17 1 6.4 14.5 0.00 0.00 0.00 32 1008.5
20260504223014 17 1 6.4 17.7 0.00 0.00 0.00 32 1008.4
20260504222513 17 12 6.4 17.7 0.00 0.00 0.00 32 1008.4
20260504222016 17 2 4.8 16.1 0.00 0.00 0.00 32 1008.3
20260504221511 18 1 6.4 22.5 0.00 0.00 0.00 31 1008.3
20260504221011 18 6 8.0 22.5 0.00 0.00 0.00 31 1008.3
20260504220512 18 353 6.4 19.3 0.00 0.00 0.00 31 1008.1
20260504220020 19 7 6.4 22.5 0.00 0.00 0.00 29 1008.0
20260504215515 19 26 9.7 22.5 0.00 0.00 0.00 29 1007.9
20260504215015 19 359 9.7 22.5 0.00 0.00 0.00 30 1007.9
20260504214522 19 1 11.3 25.7 0.00 0.00 0.00 30 1008.0
20260504214019 19 57 8.0 25.7 0.00 0.00 0.00 29 1008.3
20260504213515 19 6 9.7 27.4 0.00 0.00 0.00 29 1008.3
20260504213018 20 359 9.7 27.4 0.00 0.00 0.00 29 1008.5
20260504212520 20 360 11.3 24.1 0.00 0.00 0.00 29 1008.5
20260504212021 20 18 8.0 22.5 0.00 0.00 0.00 29 1008.5
20260504211526 18 323 11.3 22.5 0.00 0.00 0.00 30 1008.5
20260504211017 18 1 8.0 19.3 0.00 0.00 0.00 30 1008.7
20260504210517 19 23 9.7 22.5 0.00 0.00 0.00 27 1008.7
20260504210018 19 358 6.4 22.5 0.00 0.00 0.00 26 1008.7
20260504205518 19 250 8.0 19.3 0.00 0.00 0.00 24 1008.5
20260504205017 19 219 9.7 20.9 0.00 0.00 0.00 24 1008.5
20260504204523 19 232 9.7 20.9 0.00 0.00 0.00 24 1008.3
20260504204020 19 223 11.3 29.0 0.00 0.00 0.00 24 1008.2
20260504203521 19 181 16.1 30.6 0.00 0.00 0.00 24 1008.0
20260504203022 18 214 16.1 30.6 0.00 0.00 0.00 25 1007.9
20260504202519 18 214 16.1 30.6 0.00 0.00 0.00 26 1007.9
20260504202019 18 229 20.9 33.8 0.00 0.00 0.00 28 1008.0
20260504201520 18 229 20.9 35.4 0.00 0.00 0.00 27 1008.0
20260504201019 19 238 25.7 35.4 0.00 0.00 0.00 25 1008.1
20260504200519 20 210 19.3 35.4 0.00 0.00 0.00 23 1007.9
20260504200020 21 2 8.0 20.9 0.00 0.00 0.00 20 1007.8
20260504195520 21 1 9.7 20.9 0.00 0.00 0.00 20 1007.8
20260504195022 21 359 6.4 14.5 0.00 0.00 0.00 20 1007.8
20260504194520 22 240 8.0 14.5 0.00 0.00 0.00 17 1007.7
20260504194020 22 289 4.8 20.9 0.00 0.00 0.00 17 1007.8
20260504193521 22 297 12.9 20.9 0.00 0.00 0.00 17 1007.9
20260504193024 22 301 8.0 20.9 0.00 0.00 0.00 17 1007.7
20260504192521 23 287 8.0 19.3 0.00 0.00 0.00 18 1007.8
20260504192025 23 326 6.4 19.3 0.00 0.00 0.00 18 1007.7
20260504191526 23 309 6.4 16.1 0.00 0.00 0.00 18 1007.7
20260504191023 23 354 6.4 17.7 0.00 0.00 0.00 17 1007.7
20260504190525 23 290 9.7 25.7 0.00 0.00 0.00 18 1007.7
20260504190022 22 257 14.5 25.7 0.00 0.00 0.00 17 1007.7
20260504185522 23 279 6.4 16.1 0.00 0.00 0.00 18 1007.7
20260504185020 23 258 6.4 19.3 0.00 0.00 0.00 19 1007.7
20260504184527 23 249 8.0 19.3 0.00 0.00 0.00 19 1007.7
20260504184023 23 315 8.0 17.7 0.00 0.00 0.00 18 1007.9
20260504183522 22 359 8.0 20.9 0.00 0.00 0.00 19 1007.8
20260504183023 22 314 9.7 22.5 0.00 0.00 0.00 22 1008.0
20260504182522 21 298 16.1 29.0 0.00 0.00 0.00 21 1008.0
20260504182021 21 284 14.5 29.0 0.00 0.00 0.00 23 1008.1
20260504181532 21 258 14.5 27.4 0.00 0.00 0.00 21 1008.2
20260504181027 21 283 11.3 29.0 0.00 0.00 0.00 23 1008.3
20260504180524 21 290 19.3 30.6 0.00 0.00 0.00 22 1008.3
20260504180026 21 304 19.3 30.6 0.00 0.00 0.00 22 1008.3
20260504175528 21 281 17.7 29.0 0.00 0.00 0.00 23 1008.4
20260504175023 21 276 17.7 29.0 0.00 0.00 0.00 23 1008.5
20260504174523 21 297 17.7 30.6 0.00 0.00 0.00 23 1008.6
20260504174022 21 258 19.3 30.6 0.00 0.00 0.00 24 1008.8
20260504173522 20 307 17.7 38.6 0.00 0.00 0.00 25 1008.8
20260504173025 20 284 20.9 38.6 0.00 0.00 0.00 25 1008.9
20260504172527 20 282 19.3 33.8 0.00 0.00 0.00 25 1008.9
20260504172024 20 269 24.1 32.2 0.00 0.00 0.00 25 1008.9
20260504171523 20 283 20.9 33.8 0.00 0.00 0.00 25 1009.0
20260504171026 20 286 19.3 35.4 0.00 0.00 0.00 25 1009.0
20260504170528 20 286 19.3 35.4 0.00 0.00 0.00 25 1009.0
20260504151010 17 243 9.7 16.1 0.00 0.00 0.00 31 1009.5
20260504150510 16 245 6.4 11.3 0.00 0.00 0.00 32 1009.5
20260504141009 13 247 6.4 12.9 0.00 0.00 0.00 36 1009.6
20260504140508 13 236 8.0 12.9 0.00 0.00 0.00 36 1009.7
20260504130510 8 296 0.0 0.0 0.00 0.00 0.00 52 1009.7